Home > Weather > Almaty > Past weeks

Flag for Kazakhstan Past Weather in Almaty, Kazakhstan — Yesterday and Last 2 Weeks

Now
64 °F

Partly cloudy.


Feels Like: 64 °F
Forecast: 71 / 87 °F
Wind: 3 mph from East

Location: Almaty Airport

Current Time: Jul 2, 2016 at 4:37:32 AM

Latest Report: Jul 2, 2016 at 4:00 AM


Visibility: N/A

Pressure: 29.56 "Hg (26.94 "Hg at 790m altitude)

Humidity: 83%

Dew Point: 59 °F

Location of AlmatyLocation

Past Weather in Almaty — Graph

°F

Almaty Temperature Yesterday

Maximum temperature yesterday: 90 °F (at 2:30 PM)
Minimum temperature yesterday: 66 °F (at 5:00 AM)
Average temperature yesterday: 75 °F

High & Low Weather Summary for the Past Weeks

 TemperatureHumidityPressure
High93 °F (Jun 30, 3:30 PM)94% (Jun 18, 6:30 AM)30.07 "Hg (Jun 18, 6:30 AM)
Low52 °F (Jun 25, 5:30 AM)20% (Jun 26, 5:00 PM)29.56 "Hg (Jul 2, 2:30 AM)
Average70 °F60%29.90 "Hg
* Reported Jun 17 3:00 AM — Jul 2 3:30 AM, Almaty, Weather by CustomWeather, © 2016

Note: Actual official high and low records may vary slightly from our data, if they occured in-between our weather recording intervals... More about our weather records

Advertising

Almaty Weather History for the Previous 24 Hours

Scroll right to see more
 ConditionsComfort  
Time TempWeatherWind HumidityBarometerVisibility
3:30 AM
Sat, Jul 2
64 °FPartly cloudy.3 mph83%29.56 "HgN/A
3:00 AM66 °FPartly cloudy.3 mph78%29.56 "HgN/A
2:30 AM70 °FPassing clouds.3 mph64%29.56 "HgN/A
2:00 AM70 °FPassing clouds.10 mph69%29.59 "HgN/A
1:30 AM70 °FPassing clouds.10 mph69%29.59 "HgN/A
1:00 AM70 °FPassing clouds.13 mph73%29.62 "HgN/A
12:30 AM70 °FSprinkles. Mostly cloudy.6 mph73%29.65 "HgN/A
12:00 AM68 °FThundershowers. Mostly cloudy.6 mph83%29.68 "HgN/A
11:30 PM
Fri, Jul 1
66 °FPartly cloudy.No wind88%29.62 "HgN/A
11:00 PM68 °FPartly cloudy.1 mph78%29.62 "HgN/A
10:30 PM72 °FPassing clouds.6 mph69%29.65 "HgN/A
10:00 PM72 °FPassing clouds.8 mph65%29.65 "HgN/A
9:30 PM73 °FSprinkles. Passing clouds.10 mph61%29.68 "HgN/A
9:00 PM70 °FThunderstorms. Passing clouds.13 mph73%29.71 "Hg3 mi
8:30 PM75 °FThundershowers. Partly sunny.10 mph61%29.68 "HgN/A
8:00 PM77 °FBroken clouds.6 mph65%29.62 "HgN/A
7:30 PM81 °FBroken clouds.1 mph51%29.62 "HgN/A
7:00 PM79 °FBroken clouds.6 mph51%29.62 "HgN/A
6:30 PM79 °FBroken clouds.8 mph51%29.62 "HgN/A
6:00 PM77 °FBroken clouds.8 mph61%29.65 "HgN/A
5:30 PM72 °FThundershowers. Broken clouds.3 mph78%29.68 "HgN/A
5:00 PM70 °FThundershowers. Mostly cloudy.15 mph78%29.68 "Hg3 mi
4:30 PM77 °FThundershowers. Partly sunny.6 mph61%29.62 "HgN/A
4:00 PM77 °FThundershowers. Mostly cloudy.20 mph51%29.65 "Hg3 mi
3:30 PM86 °FBroken clouds.3 mph49%29.62 "HgN/A
3:00 PM88 °FBroken clouds.3 mph33%29.62 "HgN/A
2:30 PM90 °FPartly sunny.3 mph31%29.62 "HgN/A
2:00 PM88 °FPartly sunny.6 mph31%29.62 "HgN/A
1:30 PM86 °FPartly sunny.8 mph55%29.62 "HgN/A
1:00 PM88 °FPartly sunny.6 mph46%29.62 "HgN/A
12:30 PM86 °FPartly sunny.6 mph46%29.65 "HgN/A
12:00 PM82 °FBroken clouds.1 mph42%29.65 "HgN/A
11:30 AM82 °FBroken clouds.3 mph42%29.65 "HgN/A
11:00 AM77 °FBroken clouds.1 mph65%29.65 "HgN/A
10:30 AM75 °FBroken clouds.3 mph61%29.68 "HgN/A
10:00 AM73 °FBroken clouds.3 mph65%29.65 "HgN/A
9:30 AM73 °FPartly sunny.10 mph57%29.68 "HgN/A
9:00 AM70 °FThundershowers. Mostly cloudy.13 mph73%29.71 "HgN/A
8:30 AM70 °FThundershowers. Mostly cloudy.8 mph78%29.74 "HgN/A
8:00 AM72 °FThunderstorms. Partly sunny.8 mph69%29.71 "HgN/A
7:30 AM73 °FThunderstorms. Partly sunny.3 mph69%29.68 "HgN/A
7:00 AM72 °FBroken clouds.6 mph65%29.65 "HgN/A
6:30 AM70 °FBroken clouds.1 mph73%29.68 "HgN/A
6:00 AM66 °FBroken clouds.3 mph78%29.65 "HgN/A
5:30 AM66 °FBroken clouds.3 mph78%29.65 "HgN/A
5:00 AM66 °FPartly cloudy.3 mph73%29.65 "HgN/A
4:30 AM68 °FPartly cloudy.1 mph73%29.65 "HgN/A
4:00 AM68 °FPartly cloudy.3 mph73%29.65 "HgN/A
Weather by CustomWeather, © 2016

See weather overviewHow to use our weather pages